sat.trackr.live / text

‹ back to catalog

STARLINK-37411

NORAD 69380 · 2026-123AD

PAYLOAD ACTIVE UNKNOWN

§ Identity

Operator
Country
US
Launch date
2026-06-04
Launch site
AFETR
Launch vehicle
Mass (kg)
RCS (m²)

Purposes: comms

External: N2YO · Heavens-Above · Gunter

§ Orbital elements

Epoch: 2026-09-19T22:55:23.924928Z

Period
93.85 min
Inclination
53.1575°
Eccentricity
0.0000472
Mean motion
15.34406113 rev/d
Perigee alt
462.4 km
Apogee alt
463.0 km
Semi-major
6,840.8 km
B*
5.0993e-4
RAAN
144.4377°
Arg perigee
68.4206°
Mean anomaly
291.6847°
Rev number
1,678

§ Raw data

STARLINK-374111 69380U 26123AD  26262.95513802  .00016895  00000+0  50993-3 0  99982 69380  53.1575 144.4377 0000472  68.4206 291.6847 15.34406113 16780

JSON: /api/v1/satellites/69380 · /tle

For live sub-satellite position, see the globe view (requires WebGL).

§ Visibility from observer

Set your observer location to see the next 7 days of passes ≥ 10°. The values pass through the URL so the page stays shareable.

No JS? Fill the form by hand. The geolocation button needs JavaScript.